CAPE
19 23 47 62 31 49 128 198 188 207 33 87 20 7 21 2 1 0 0 1 0 0 0 0 0 0 0 0 0 0 0 0 0 0 0 0 0 0 0 0 0 0 0 0 1
23 8 42 57 94 99 100 138 355 175 43 4 25 15 7 1 0 0 0 0 0 0 0 0 0 6 1 0 0 0 0 0 0 0 0 0 0 0 0 0 0 0 0 1 3
11 5 18 17 45 153 106 47 289 2 6 0 1 2 5 4 0 0 14 14 0 0 0 0 0 0 0 0 0 0 0 0 0 0 0 0 0 0 0 0 0 0 0 1 6
5 4 8 19 9 38 124 96 45 15 5 2 0 1 0 0 3 0 2 11 0 3 0 0 0 0 0 0 0 0 0 0 0 0 0 0 0 0 0 0 0 0 0 1 4
2 1 2 9 23 20 68 68 24 21 3 0 0 8 0 0 0 0 0 0 0 4 0 0 0 0 0 0 0 0 0 0 0 0 0 0 0 0 0 0 0 0 1 0 1
3 0 0 0 0 16 13 12 4 9 47 4 0 0 0 0 0 0 0 0 0 2 1 1 0 0 0 0 0 0 0 0 0 0 0 0 0 0 0 0 0 0 0 4 5
3 0 1 8 0 0 1 4 15 0 6 4 0 11 0 1 1 0 0 0 0 0 4 0 0 0 0 0 0 0 0 0 0 0 0 0 0 0 0 0 0 0 0 1 4
1 0 0 1 0 0 4 13 9 11 3 0 0 0 1 0 2 0 0 0 0 0 0 1 0 0 0 0 0 0 0 0 0 0 0 0 0 0 0 0 0 0 0 0 3
0 0 0 0 1 3 2 1 2 0 0 0 0 0 0 0 0 0 0 0 0 1 2 0 0 0 0 0 1 0 1 0 0 0 0 0 0 0 0 0 0 0 0 0 0
0 0 0 0 0 0 0 0 0 0 0 0 0 0 0 0 0 0 0 0 0 0 0 0 0 1 1 0 0 0 0 0 0 0 0 0 0 0 0 0 0 0 0 0 0
0 0 0 0 0 0 0 0 0 0 0 1 1 0 0 0 0 0 0 0 0 0 0 0 1 2 0 0 0 0 0 0 0 0 0 0 0 0 0 0 0 0 0 0 0
0 0 0 0 0 0 0 0 0 0 0 0 1 0 0 0 0 0 0 0 0 0 0 0 0 1 0 0 0 0 0 0 0 0 0 0 0 0 0 0 0 0 0 0 0
0 0 0 0 0 0 0 0 0 1 0 0 0 0 0 0 0 0 0 0 0 0 0 0 1 0 0 5 0 0 0 0 0 0 0 0 0 0 0 0 0 0 0 0 0
0 0 0 0 0 0 0 0 0 0 0 0 0 0 0 0 0 0 0 0 0 1 0 0 0 0 0 0 0 0 0 0 0 0 0 0 0 0 0 0 0 0 0 0 0
0 0 0 0 0 0 0 0 0 0 0 0 0 0 0 0 0 0 0 0 0 0 0 0 1 0 0 0 0 0 0 0 0 0 0 0 0 0 0 0 0 0 0 0 0
0 0 0 0 0 0 0 0 0 0 0 0 0 0 0 0 0 0 0 0 0 0 0 0 0 0 0 0 0 0 0 0 0 0 0 0 0 0 0 0 0 0 0 0 0
0 0 0 0 0 0 0 0 0 0 0 0 0 0 0 0 0 0 0 0 0 0 0 0 0 0 0 0 0 0 0 0 0 0 0 0 0 0 0 0 0 0 0 0 0
0 0 0 0 0 0 0 0 0 0 0 0 0 0 0 0 0 0 0 1 0 0 0 0 0 0 0 0 0 0 0 0 0 0 0 0 0 0 0 0 0 0 0 0 0
0 0 0 0 0 0 0 0 0 0 0 0 0 0 0 0 0 0 0 0 0 0 0 0 0 0 0 0 0 0 0 0 0 0 0 0 0 0 0 0 0 0 0 0 0
0 0 0 0 0 0 0 0 0 0 0 0 0 0 0 0 0 0 0 0 0 0 0 0 0 0 0 0 0 0 0 0 0 0 0 0 0 0 0 0 0 0 0 0 0
0 0 0 0 0 0 0 0 0 0 0 0 0 0 0 0 0 0 0 0 0 0 0 0 0 0 0 0 0 0 0 0 0 0 0 0 0 0 0 0 0 0 0 0 0
0 0 0 0 0 0 0 0 0 0 0 0 0 0 0 0 0 0 0 0 0 0 0 0 0 0 0 0 0 0 0 0 0 0 0 0 0 0 0 0 0 0 0 0 0
0 0 0 0 0 0 0 0 0 0 0 0 0 0 0 0 0 0 0 0 0 0 0 0 0 0 0 0 0 0 0 0 0 0 0 0 0 0 0 0 0 0 0 0 0
0 0 0 0 0 0 0 0 0 0 0 0 0 0 0 0 0 0 0 0 0 0 0 0 0 0 0 0 0 0 0 0 0 0 0 0 0 0 0 0 0 0 0 0 0
0 0 0 0 0 0 0 0 0 0 0 0 0 0 0 0 0 0 0 0 0 0 0 0 0 0 0 0 0 0 0 0 0 0 0 0 0 0 0 0 0 0 0 0 0
0 0 0 0 0 0 0 0 0 0 0 0 0 0 0 0 0 0 0 0 0 0 0 0 0 0 0 0 0 0 0 0 0 0 0 0 0 0 0 0 0 0 0 0 0
0 0 0 0 0 0 0 0 0 0 0 0 0 0 0 0 0 0 0 0 0 0 0 0 0 0 0 0 0 0 0 0 0 0 0 0 0 0 0 0 0 0 0 0 0
CIN
0 -1 0 0 -27 -20 -53 -15 -11 -4 -18 -3 -33 -19 -6 -14 -35 0 0 0 0 0 0 0 0 0 0 0 0 0 0 0 0 0 0 0 0 0 0 0 0 0 0 0 -2
0 0 0 0 -4 -14 -24 -47 -2 -42 -46 -10 -19 0 -6 -20 0 0 0 0 0 0 0 0 0 -28 -19 0 0 0 0 0 0 0 0 0 0 0 0 0 0 0 0 -1 0
0 0 -3 -10 -11 -2 -10 -56 -1 -12 -37 0 -17 -1 0 -1 -11 0 0 0 0 0 0 0 0 -38 -2 0 0 0 0 0 0 0 0 0 0 0 0 0 0 0 0 -1 0
0 0 -7 0 -20 -7 -2 0 -7 -21 -37 -42 0 -1 -1 0 -4 0 -2 0 0 0 0 0 0 0 -2 0 0 0 0 0 0 0 0 0 0 0 0 0 0 0 0 0 0
0 0 -3 -41 -17 -8 -6 -18 -39 -1 0 0 0 -3 0 0 0 0 0 0 0 0 0 0 0 0 -1 0 0 0 0 0 0 0 0 0 0 0 0 0 0 0 0 0 0
0 0 0 -2 0 -20 -40 -2 -8 -2 -1 -15 -10 -3 0 0 0 0 0 0 0 -1 0 0 0 0 0 0 0 0 0 0 0 0 0 0 0 0 0 0 0 0 0 0 0
0 0 0 -5 0 0 -4 -1 -4 -1 -11 -8 -1 -5 0 0 0 0 0 0 0 0 0 0 0 0 0 0 0 0 0 0 0 0 0 0 0 0 0 0 0 0 0 -2 0
0 0 0 0 0 0 -10 -9 -11 -9 -25 -22 0 -3 0 0 0 0 0 0 0 0 0 0 0 0 0 0 0 0 0 0 0 0 0 0 0 0 0 0 0 0 0 0 0
0 0 0 0 -37 -18 -24 -12 -19 0 0 0 0 0 0 0 0 0 0 0 0 0 0 0 0 0 0 0 0 0 0 0 0 0 0 0 0 0 0 0 0 0 0 0 -1
0 0 0 0 0 0 0 0 0 0 0 0 0 0 0 0 0 0 0 0 0 0 0 0 0 0 0 0 0 0 0 0 0 0 0 0 0 0 0 0 0 0 0 0 0
0 0 0 0 0 0 0 0 0 0 0 0 0 0 0 0 0 0 0 0 0 0 0 0 0 0 0 0 0 0 0 0 0 0 0 0 0 0 0 0 0 0 0 0 0
0 0 0 0 0 0 0 0 0 0 0 -1 -19 -1 0 0 0 0 0 0 0 0 0 0 0 0 0 0 0 0 0 0 0 0 0 0 0 0 0 0 0 0 0 0 0
0 0 0 0 0 0 0 0 0 0 0 0 0 0 0 0 0 0 0 0 0 0 0 0 0 0 0 -10 0 0 0 0 0 0 0 0 0 0 0 0 0 0 0 0 0
0 0 0 0 0 0 0 0 0 0 0 0 0 0 0 0 0 0 0 0 0 0 0 0 0 0 0 0 0 0 0 0 0 0 0 0 0 0 0 0 0 0 0 0 0
0 0 0 0 0 0 0 0 0 0 0 0 0 0 0 0 0 0 0 0 0 0 0 0 0 -1 0 0 0 0 0 0 0 0 0 0 0 0 0 0 0 0 0 0 0
0 0 0 0 0 0 0 0 0 0 0 0 0 0 0 0 0 0 0 0 0 0 0 0 0 0 0 0 0 0 0 0 0 0 0 0 0 0 0 0 0 0 0 0 0
0 0 0 0 0 0 0 0 0 0 0 0 0 0 0 0 0 0 0 0 0 0 0 0 0 0 0 0 0 0 0 0 0 0 0 0 0 0 0 0 0 0 0 0 0
0 0 0 0 0 0 0 0 0 0 0 0 0 0 0 0 0 0 0 0 0 0 0 0 0 0 0 0 0 0 0 0 0 0 0 0 0 0 0 0 0 0 0 0 0
0 0 0 0 0 0 0 0 0 0 0 0 0 0 0 0 0 0 0 0 0 0 0 0 0 0 0 0 0 0 0 0 0 0 0 0 0 0 0 0 0 0 0 0 0
0 0 0 0 0 0 0 0 0 0 0 0 0 0 0 0 0 0 0 0 0 0 0 0 0 0 0 0 0 0 0 0 0 0 0 0 0 0 0 0 0 0 0 0 0
0 0 0 0 0 0 0 0 0 0 0 0 0 0 0 0 0 0 0 0 0 0 0 0 0 0 0 0 0 0 0 0 0 0 0 0 0 0 0 0 0 0 0 0 0
0 0 0 0 0 0 0 0 0 0 0 0 0 0 0 0 0 0 0 0 0 0 0 0 0 0 0 0 0 0 0 0 0 0 0 0 0 0 0 0 0 0 0 0 0
0 0 0 0 0 0 0 0 0 0 0 0 0 0 0 0 0 0 0 0 0 0 0 0 0 0 0 0 0 0 0 0 0 0 0 0 0 0 0 0 0 0 0 0 0
0 0 0 0 0 0 0 0 0 0 0 0 0 0 0 0 0 0 0 0 0 0 0 0 0 0 0 0 0 0 0 0 0 0 0 0 0 0 0 0 0 0 0 0 0
0 0 0 0 0 0 0 0 0 0 0 0 0 0 0 0 0 0 0 0 0 0 0 0 0 0 0 0 0 0 0 0 0 0 0 0 0 0 0 0 0 0 0 0 0
0 0 0 0 0 0 0 0 0 0 0 0 0 0 0 0 0 0 0 0 0 0 0 0 0 0 0 0 0 0 0 0 0 0 0 0 0 0 0 0 0 0 0 0 0
0 0 0 0 0 0 0 0 0 0 0 0 0 0 0 0 0 0 0 0 0 0 0 0 0 0 0 0 0 0 0 0 0 0 0 0 0 0 0 0 0 0 0 0 0
Wind_Speed
36 42 43 33 25 19 14 14 18 16 16 16 24 25 24 20 14 19 27 23 22 21 19 15 19 26 26 27 22 22 31 33 28 25 19 12 14 13 15 12 12 13 15 13 5
37 41 40 34 28 17 19 23 19 16 13 8 16 20 21 18 17 19 20 22 20 21 22 19 21 20 28 31 27 28 34 31 22 19 19 12 17 12 13 12 15 13 15 6 3
33 37 38 31 26 27 21 23 20 15 16 10 15 22 23 21 23 26 18 19 20 22 19 19 16 22 30 29 29 29 29 22 22 21 16 11 15 15 15 15 17 17 11 6 2
30 34 34 31 20 16 15 8 17 19 14 13 13 17 20 24 36 23 21 20 22 22 18 16 21 25 28 32 29 31 27 24 19 17 14 13 12 15 15 16 18 18 8 5 1
29 29 31 6 18 9 6 10 14 25 13 12 19 15 21 24 26 20 22 22 23 25 23 24 21 23 29 31 28 28 27 22 19 15 14 13 15 17 15 16 15 12 9 8 3
27 26 21 17 22 6 6 11 15 17 10 8 18 18 18 28 20 20 22 24 28 26 23 24 25 21 22 29 31 26 23 19 18 16 15 15 17 17 17 15 12 11 13 11 7
27 24 14 20 10 5 8 12 16 10 12 10 15 13 12 21 19 21 20 23 23 24 24 20 19 24 20 24 24 20 22 21 18 19 20 18 18 20 15 14 14 15 16 18 12
22 18 15 13 2 6 14 13 11 11 11 14 15 13 17 14 16 16 19 21 18 17 19 16 14 16 22 13 21 25 20 24 20 20 18 20 18 17 16 16 17 16 16 15 15
17 15 7 4 7 17 9 10 11 12 12 12 13 13 16 15 16 17 21 24 20 18 17 14 16 20 18 21 24 26 26 24 20 18 17 20 18 16 16 18 20 19 18 18 19
16 18 11 6 23 14 10 9 8 9 14 16 11 10 12 16 15 16 17 21 24 19 20 20 20 21 22 25 31 30 22 21 22 19 21 20 23 18 17 20 22 22 22 21 21
1 19 21 15 11 9 10 12 12 8 1 4 7 6 11 11 12 15 18 20 23 23 26 23 23 26 19 22 20 21 18 17 17 19 23 23 25 26 24 23 27 27 27 25 25
19 21 14 18 17 12 3 21 14 14 1 12 12 10 13 11 12 12 16 23 26 26 23 23 25 23 17 15 16 19 21 23 18 20 24 22 23 20 21 23 25 26 26 27 27
11 8 10 14 17 9 6 25 17 13 12 6 9 9 10 10 8 11 13 18 21 22 22 19 19 21 22 21 18 19 21 19 21 20 20 21 19 17 14 16 17 17 18 20 21
10 15 7 14 20 16 22 16 15 13 9 9 10 8 10 14 8 9 15 18 20 17 15 16 16 15 14 18 19 20 18 18 18 19 23 19 22 17 13 16 19 19 19 19 21
10 10 18 18 19 19 14 13 14 14 13 15 15 14 14 10 15 7 9 9 15 20 19 17 12 11 15 19 17 17 13 14 16 18 17 20 20 17 17 18 16 16 17 18 19
15 10 12 15 15 16 13 13 13 13 11 15 15 14 11 8 12 11 9 8 11 9 6 11 11 13 13 11 10 7 10 12 16 18 21 20 20 18 18 14 13 15 16 17 17
14 15 14 14 15 15 12 15 14 14 14 14 15 14 10 12 12 12 13 15 20 20 20 16 14 13 12 11 13 15 16 21 24 24 24 19 20 17 12 8 11 13 15 16 17
16 13 13 14 9 17 15 16 16 13 14 15 13 10 13 14 14 15 14 16 14 15 17 21 22 18 19 17 17 16 18 22 26 24 20 18 22 18 11 9 13 15 15 16 20
19 12 8 11 11 15 14 18 18 17 12 6 12 14 15 13 12 13 14 14 14 13 18 18 20 16 15 16 17 19 20 18 18 19 22 21 19 16 14 14 15 15 16 20 25
19 17 11 14 10 11 16 17 20 11 10 5 14 16 18 17 16 16 16 15 15 15 15 16 19 16 15 16 15 17 15 20 21 24 26 22 22 21 14 14 16 17 20 24 27
19 21 17 17 10 13 5 9 18 8 10 15 18 16 18 16 17 19 17 16 16 15 16 13 16 18 15 19 18 18 21 20 19 21 26 28 27 18 15 14 17 21 24 27 31
19 23 20 15 13 14 8 8 19 4 9 17 17 18 17 16 19 20 20 18 11 13 17 16 16 17 18 17 18 20 21 22 25 26 24 26 30 17 11 12 18 23 25 31 33
23 22 18 16 22 20 16 13 10 8 16 15 13 16 17 16 20 19 18 15 12 13 14 14 19 21 22 23 21 23 22 21 20 21 26 28 30 15 12 14 17 23 27 31 32
23 27 21 19 22 21 17 17 13 14 13 14 15 14 10 15 18 16 16 15 14 15 14 14 19 23 25 23 18 22 20 18 19 25 25 24 21 15 11 11 12 22 27 28 28
25 29 23 25 25 24 19 16 14 16 16 15 13 9 11 13 15 16 16 15 16 16 15 16 21 19 20 19 20 21 18 16 17 17 20 18 16 16 10 12 19 22 22 25 28
26 28 24 26 23 21 22 21 16 17 14 19 18 8 8 12 16 11 13 15 16 16 16 17 18 17 20 22 23 24 24 20 17 18 22 15 25 12 8 9 13 14 17 23 25
27 25 26 28 28 26 29 24 18 17 19 20 17 15 15 19 15 15 13 15 14 12 13 13 13 15 21 21 23 30 22 17 10 9 6 12 9 10 15 14 15 15 16 18 20
Wind_Direction
18 9 8 26 40 59 85 113 225 211 232 246 222 225 211 215 224 228 221 227 228 224 229 233 236 226 232 230 242 249 235 232 239 243 257 257 264 275 278 285 285 293 306 321 71
17 10 13 23 42 96 138 152 203 222 216 223 225 213 213 213 216 223 239 235 227 224 226 228 225 221 225 229 235 237 233 237 250 258 260 260 264 273 276 279 281 289 303 6 50
26 18 13 22 48 47 100 178 208 210 220 254 228 213 216 226 220 226 246 232 222 224 230 231 221 224 222 228 231 235 237 252 254 259 265 265 268 272 276 278 283 282 300 322 360
34 30 26 2 64 93 1 216 193 195 212 223 226 223 221 222 213 233 237 229 223 226 222 220 225 223 225 223 232 234 246 253 259 266 270 271 274 273 274 286 287 292 303 313 323
37 41 37 77 80 330 269 210 204 165 220 241 204 220 217 218 223 239 234 228 224 220 223 223 221 225 232 222 230 238 242 254 259 264 271 275 273 276 277 290 298 303 305 306 306
43 52 65 81 76 296 266 189 197 183 237 332 219 220 224 215 237 238 234 222 220 223 225 225 230 235 232 226 227 236 244 247 257 265 269 272 275 275 282 293 302 304 301 304 299
50 59 80 84 126 239 209 191 172 215 270 246 236 233 217 223 243 236 230 222 225 229 225 235 234 236 239 227 229 238 243 246 257 264 261 269 274 275 292 294 295 297 299 297 301
60 72 86 117 174 191 158 174 206 212 229 205 221 240 222 245 251 236 224 218 226 230 227 236 238 237 234 218 228 232 241 242 253 257 265 266 276 282 292 293 295 301 303 304 303
71 79 102 173 155 126 177 232 245 198 211 204 220 234 226 247 233 236 225 213 214 220 227 235 239 233 227 219 224 237 242 240 249 263 267 267 277 293 297 292 292 299 301 299 299
76 79 104 183 47 121 158 201 229 208 204 187 217 230 247 222 235 226 221 213 214 211 222 230 237 228 225 225 227 229 237 243 250 260 263 271 273 292 298 292 292 294 295 297 297
359 75 76 88 273 258 211 186 189 191 334 266 225 222 224 231 232 220 215 207 211 219 222 230 233 225 216 236 235 231 238 244 257 267 265 270 277 280 289 290 286 288 290 294 295
318 56 90 88 104 144 219 140 161 174 109 163 178 207 221 227 215 214 217 212 211 217 225 232 231 233 231 245 235 241 241 251 267 269 269 279 285 293 295 295 296 295 294 293 294
269 274 108 117 123 158 73 110 153 185 182 199 190 214 220 227 226 217 221 214 207 216 220 223 235 237 237 240 236 247 247 253 266 270 276 278 282 294 310 318 321 324 320 316 314
98 289 170 127 115 152 103 137 167 205 211 230 221 232 229 222 228 243 231 221 217 210 220 235 241 229 232 232 242 246 261 262 264 266 268 282 270 287 301 314 318 318 318 322 322
102 263 321 347 86 107 158 159 164 201 228 211 216 242 227 232 220 242 233 214 213 225 231 220 234 236 240 248 262 252 267 268 271 270 271 278 277 282 292 302 317 328 331 331 336
47 95 116 354 21 63 158 162 165 223 241 222 223 227 226 227 219 233 225 232 240 212 209 230 259 257 254 271 268 259 275 281 278 275 271 277 279 278 290 301 316 330 336 343 350
32 45 76 97 273 354 65 56 265 246 229 224 225 227 237 231 230 236 237 238 236 228 233 248 261 265 269 271 274 272 268 266 266 268 272 281 282 289 296 306 321 325 333 339 345
23 28 46 72 27 306 317 253 280 275 248 232 228 237 234 234 237 241 242 241 254 246 241 246 245 264 273 272 272 274 274 268 265 267 274 282 278 282 292 299 311 319 327 336 334
347 23 39 31 88 301 314 244 266 263 297 276 248 237 235 250 251 247 248 244 254 250 255 247 253 274 279 281 278 272 272 279 278 282 278 283 289 288 281 285 300 312 320 323 325
330 343 2 343 16 107 171 172 250 312 294 278 260 256 244 249 255 254 252 263 261 264 279 270 262 277 285 290 297 285 284 276 279 276 277 284 284 286 266 273 293 304 314 319 323
319 307 334 326 350 318 91 115 207 325 294 267 266 268 268 266 264 255 259 273 267 266 276 281 283 273 284 279 277 283 280 288 291 289 283 284 287 290 270 270 287 301 313 321 323
308 298 316 319 310 311 314 335 274 73 304 279 278 278 269 265 265 263 262 276 280 278 271 280 286 279 280 290 289 285 281 281 282 284 289 290 289 303 282 277 298 309 316 319 323
294 297 311 303 283 287 299 299 306 298 273 283 290 284 279 267 267 268 269 282 284 277 276 280 280 277 281 284 287 280 280 283 292 294 286 288 295 308 297 290 303 313 319 324 329
285 282 293 287 287 284 288 286 282 283 285 282 282 287 289 272 278 270 270 278 279 282 292 288 283 280 277 286 293 282 281 283 287 289 294 293 303 310 310 304 311 325 327 332 335
274 277 284 279 277 276 276 291 270 275 276 277 282 279 280 280 278 273 270 275 280 286 287 287 283 288 295 296 296 292 286 280 279 290 296 314 306 311 322 321 325 330 335 335 334
270 270 281 278 281 270 270 277 273 271 268 267 272 243 264 288 278 283 277 276 276 275 279 284 291 290 288 286 288 285 280 282 284 287 293 309 308 329 297 322 338 341 340 337 337
264 277 276 274 271 266 267 272 267 264 270 274 259 266 264 272 285 292 290 286 291 285 281 286 290 291 286 290 290 283 210 205 220 218 231 295 320 334 344 346 339 339 341 342 342